Station SDHN4 - 8531680 - Sandy Hook, NJ Image indicating link to RSS feed of recent meteorological observations for station SDHN4


Conditions at SDHN4 as of
(2:48 am EDT)
0648 GMT on 04/23/2024:
     

Click on the graph icon in the table below to see a time series plot of the last five days of that observation.

5-day plot - Wind Direction Wind Direction (WDIR):WSW ( 250 deg true )
5-day plot - Wind Speed Wind Speed (WSPD): 6.0 kts
5-day plot - Wind Gust Wind Gust (GST): 7.0 kts
5-day plot - Atmospheric Pressure Atmospheric Pressure (PRES):30.16 in
5-day plot - Air Temperature Air Temperature (ATMP): 46.6 °F
5-day plot - Water Temperature Water Temperature (WTMP): 52.5 °F
5-day plot - Wind Chill Wind Chill (CHILL): 43.2 °F
5-day plot - Wind Speed at 10 Meters Wind Speed at 10 meters (WSPD10M): 7.8 kts
5-day plot - Wind Speed at 20 Meters Wind Speed at 20 meters (WSPD20M): 7.8 kts
5-day plot -  Wind Speed, Wind Gust and Atmospheric Pressure Combined plot of Wind Speed, Gust, and Air Pressure
NOS Water Level Observation Network Water Level
Previous observations
TIME
(EDT)
5-day plot - Wind Direction
WDIR
 
5-day plot - Wind Speed
WSPD
kts
5-day plot - Wind Gust
GST
kts
5-day plot - Wave Height
WVHT
ft
5-day plot - Dominant Wave Period
DPD
sec
5-day plot - Average Wave Period
APD
sec
5-day plot - Mean Wave Direction
MWD
 
5-day plot - Atmospheric Pressure
PRES
in
5-day plot - Pressure Tendency
PTDY
in
5-day plot - Air Temperature
ATMP
°F
5-day plot - Water Temperature
WTMP
°F
5-day plot - Dew Point
DEWP
°F
5-day plot - Salinity
SAL
psu
5-day plot - Visibility
VIS
nmi
5-day plot - Tide (above MLLW)
TIDE
ft
2024-04-23 02:42 amWSW 7.0 7.0----30.16- 46.6 52.5----
2024-04-23 02:36 am W 6.0 7.0----30.16- 46.8 52.5----
2024-04-23 02:30 am W 7.0 7.0----30.16- 46.9 52.5----
2024-04-23 02:24 amWSW 6.0 7.0----30.16- 47.5 52.5----
2024-04-23 02:18 am W 5.1 8.0----30.16- 48.2 52.5----
2024-04-23 02:12 am W 7.0 8.0----30.16- 48.4 52.5----
2024-04-23 02:06 am W 5.1 6.0----30.16- 48.4 52.5----
2024-04-23 02:00 am W 5.1 6.0----30.16+0.00 48.4 52.5----
2024-04-23 01:54 am W 5.1 6.0----30.16- 48.2 52.5----
2024-04-23 01:48 am W 4.1 5.1----30.16- 48.2 52.5----
2024-04-23 01:42 am NW 5.1 6.0----30.16- 48.2 52.5----
2024-04-23 01:36 amWNW 5.1 6.0----30.16- 48.2 52.5----
2024-04-23 01:30 am NW 4.1 5.1----30.16- 48.0 52.5----
2024-04-23 01:24 amWNW 5.1 7.0----30.16- 48.7 52.5----
2024-04-23 01:18 am W 7.0 8.0----30.16- 48.6 52.5----
2024-04-23 01:12 amWNW 4.1 6.0----30.16- 48.2 52.5----
2024-04-23 01:06 am NW 4.1 5.1----30.16- 48.2 52.5----
2024-04-23 01:00 am W 4.1 5.1----30.16+0.02 48.4 52.5----
2024-04-23 12:54 am W 4.1 5.1----30.16- 48.2 52.5----
2024-04-23 12:48 amWNW 1.9 4.1----30.16- 48.0 52.5----
2024-04-23 12:42 am W 2.9 4.1----30.16- 48.4 52.5----
2024-04-23 12:36 am W 4.1 5.1----30.16- 48.4 52.5----
2024-04-23 12:30 am SW 5.1 7.0----30.16- 48.6 52.5----
2024-04-23 12:24 am SW 7.0 8.0----30.16- 48.7 52.5----
2024-04-23 12:18 amWSW 5.1 6.0----30.16- 48.7 52.5----
2024-04-23 12:12 amWSW 4.1 5.1----30.16- 48.6 52.5----
2024-04-23 12:06 am SW 4.1 6.0----30.16- 48.7 52.5----
2024-04-23 12:00 am SW 5.1 6.0----30.16+0.04 48.7 52.5----
2024-04-22 11:54 pm SW 5.1 7.0----30.16- 48.7 52.5----
2024-04-22 11:48 pmSSW 4.1 5.1----30.16- 48.9 52.5----
2024-04-22 11:42 pm SW 5.1 6.0----30.16- 48.7 52.5----
2024-04-22 11:36 pm SW 5.1 7.0----30.16- 48.7 52.5----
2024-04-22 11:30 pmSSW 6.0 9.9----30.16- 48.7 52.5----
2024-04-22 11:24 pmSSW 8.0 9.9----30.16- 48.7 52.5----
2024-04-22 11:18 pmSSW 7.0 8.9----30.16- 48.7 52.7----
2024-04-22 11:12 pmSSW 7.0 8.9----30.16- 48.7 52.7----
2024-04-22 11:06 pmSSW 5.1 7.0----30.16- 48.9 52.7----
2024-04-22 11:00 pm SW 6.0 7.0----30.16+0.06 49.1 52.7----
2024-04-22 10:54 pm SW 7.0 8.0----30.15- 48.9 52.7----
2024-04-22 10:48 pm SW 6.0 8.0----30.15- 49.1 52.7----
2024-04-22 10:42 pm SW 6.0 8.0----30.15- 49.1 52.7----
2024-04-22 10:36 pmSSW 6.0 8.0----30.15- 49.1 52.7----
2024-04-22 10:30 pmSSW 5.1 7.0----30.15- 49.1 52.7----
2024-04-22 10:24 pmSSW 7.0 8.0----30.15- 49.1 52.7----
2024-04-22 10:18 pmSSW 7.0 9.9----30.15- 49.1 52.7----
2024-04-22 10:12 pm SW 8.9 13.0----30.15- 49.3 52.7----
2024-04-22 10:06 pm SW 11.1 13.0----30.15- 49.5 52.7----
2024-04-22 10:00 pmSSW 11.1 12.0----30.15+0.06 49.3 52.7----
2024-04-22 09:54 pmSSW 9.9 12.0----30.15- 49.5 52.7----
2024-04-22 09:48 pmSSW 9.9 14.0----30.14- 49.5 52.7----
2024-04-22 09:42 pmSSW 12.0 14.0----30.14- 49.5 52.5----
2024-04-22 09:36 pmSSW 12.0 14.0----30.14- 49.5 52.5----
2024-04-22 09:30 pmSSW 13.0 15.0----30.14- 49.5 52.5----
2024-04-22 09:24 pmSSW 13.0 15.9----30.14- 49.5 52.5----
2024-04-22 09:18 pmSSW 11.1 14.0----30.14-- 52.5----
2024-04-22 09:12 pmSSW 12.0 15.0----30.14-- 52.5----
2024-04-22 09:06 pm S 12.0 15.0----30.14-- 52.5----
2024-04-22 09:00 pmSSW 12.0 15.0----30.13+0.06 49.5 52.5----
2024-04-22 08:54 pm S 13.0 15.0----30.13- 49.6 52.5----
2024-04-22 08:48 pm S 12.0 15.9----30.12-- 52.7----
2024-04-22 08:42 pm S 15.0 15.9----30.12-- 52.7----
2024-04-22 08:36 pm S 14.0 17.1----30.12-- 52.7----
2024-04-22 08:30 pm S 15.0 18.1----30.11- 49.8 52.9----
2024-04-22 08:24 pm S 14.0 17.1----30.11- 50.0 52.9----
2024-04-22 08:18 pm--------- 50.2 52.9----
2024-04-22 08:12 pm--------- 50.2 52.9----
2024-04-22 08:06 pm--------- 50.4 52.9----
2024-04-22 08:00 pm S 13.0 18.1----30.10+0.04 50.4 52.9----
2024-04-22 07:54 pm S 14.0 18.1----30.10- 50.5 53.1----
2024-04-22 07:48 pm S 15.0 17.1----30.10- 50.5 53.1----
2024-04-22 07:42 pm S 15.0 17.1----30.09- 50.5 53.1----
2024-04-22 07:36 pm S 14.0 18.1----30.09- 50.7 52.9----
2024-04-22 07:30 pm S 15.9 19.0----30.09- 50.7 53.2----
2024-04-22 07:24 pm S 15.9 19.0----30.09- 50.7 53.6----
2024-04-22 07:18 pm S 18.1 19.0----30.09- 50.9 53.8----
2024-04-22 07:12 pm S 17.1 19.0----30.09- 50.9 53.8----
2024-04-22 07:06 pmSSE 14.0 19.0----30.08- 50.9 53.6----
2024-04-22 07:00 pmSSE 15.0 20.0----30.08+0.02 51.1 53.6----
2024-04-22 06:54 pmSSE 18.1 20.0----30.08- 50.7 53.4----
2024-04-22 06:48 pmSSE 14.0 19.0----30.08- 51.1 53.4----
2024-04-22 06:42 pmSSE 15.0 19.0----30.07- 51.3 53.2----
2024-04-22 06:36 pm S 15.9 18.1----30.07- 51.4 52.9----
2024-04-22 06:30 pmSSE 13.0 14.0----30.08- 51.8 52.2----
2024-04-22 06:24 pmSSE 14.0 19.0----30.08- 51.8 51.8----
2024-04-22 06:18 pmSSE 15.9 20.0----30.07- 51.6 51.6----
2024-04-22 06:12 pmSSE 17.1 19.0----30.07- 51.4 51.6----
2024-04-22 06:06 pmSSE 17.1 20.0----30.07- 51.8 51.8----
2024-04-22 06:00 pmSSE 15.0 18.1----30.07-0.01 52.2 52.0----
2024-04-22 05:54 pmSSE 8.9 15.9----30.06- 53.2 52.2----
2024-04-22 05:48 pm S 5.1 5.1----30.06- 57.2 52.3----
2024-04-22 05:42 pm S 4.1 5.1----30.06- 57.0 52.3----
2024-04-22 05:36 pm S 2.9 5.1----30.06- 57.6 52.3----
2024-04-22 05:30 pm SE 4.1 5.1----30.06- 57.6 52.2----
2024-04-22 05:24 pm SE 2.9 5.1----30.06- 57.7 52.0----
2024-04-22 05:18 pm SE 5.1 6.0----30.06- 56.8 51.8----
2024-04-22 05:12 pmESE 6.0 7.0----30.06- 56.7 51.8----
2024-04-22 05:06 pmESE 6.0 8.9----30.06- 56.3 51.8----
2024-04-22 05:00 pmESE 4.1 7.0----30.06-0.03 56.8 51.8----
2024-04-22 04:54 pm SE 5.1 8.0----30.06- 55.9 52.0----
2024-04-22 04:48 pmESE 7.0 9.9----30.06- 55.6 52.0----
2024-04-22 04:42 pm S 5.1 5.1----30.06- 55.9 51.8----
2024-04-22 04:36 pmSSW 1.9 5.1----30.06- 56.3 51.4----
2024-04-22 04:30 pm SW 4.1 5.1----30.06- 55.9 51.3----
2024-04-22 04:24 pmSSW 5.1 5.1----30.06- 55.8 51.4----
2024-04-22 04:18 pmSSE 1.0 1.9----30.06- 57.0 51.8----
2024-04-22 04:12 pmENE 1.9 5.1----30.06- 56.7 52.2----
2024-04-22 04:06 pmENE 2.9 7.0----30.06- 56.3 52.5----
2024-04-22 04:00 pmESE 5.1 8.0----30.06-0.03 56.5 52.7----
2024-04-22 03:54 pm SE 1.9 5.1----30.06- 56.3 52.7----
2024-04-22 03:48 pm SE 4.1 7.0----30.06- 55.8 52.7----
2024-04-22 03:42 pm SE 2.9 5.1----30.07- 55.9 52.5----
2024-04-22 03:36 pm- 0.0 2.9----30.07- 56.7 52.3----
2024-04-22 03:30 pmSSE 2.9 4.1----30.07- 54.7 52.0----
2024-04-22 03:24 pm S 4.1 4.1----30.07- 54.3 51.6----
2024-04-22 03:18 pm S 4.1 4.1----30.07- 54.0 51.4----
2024-04-22 03:12 pm S 2.9 4.1----30.07- 53.8 51.4----
2024-04-22 03:06 pm S 2.9 4.1----30.08- 53.6 51.3----
2024-04-22 03:00 pm S 2.9 4.1----30.08-0.02 53.6 51.1----
2024-04-22 02:54 pm S 2.9 4.1----30.08- 53.6 50.9----
2024-04-22 02:48 pm S 1.9 2.9----30.08- 53.8 50.9----
2024-04-22 02:42 pm SW 1.9 4.1----30.08- 53.8 50.9----
2024-04-22 02:36 pmWSW 2.9 2.9----30.09- 54.0 50.9----
2024-04-22 02:30 pmWSW 1.9 5.1----30.09- 54.3 50.9----
2024-04-22 02:24 pm SW 5.1 5.1----30.09- 53.8 50.9----
2024-04-22 02:18 pmNNE 4.1 6.0----30.09- 54.5 50.9----
2024-04-22 02:12 pm N 4.1 8.0----30.09- 54.1 50.9----
2024-04-22 02:06 pm W 1.9 7.0----30.09- 54.3 50.7----
2024-04-22 02:00 pm N 4.1 8.0----30.09-0.01 53.6 50.7----
2024-04-22 01:54 pm N 4.1 8.9----30.09- 54.3 50.7----
2024-04-22 01:48 pmNNE 5.1 8.9----30.09- 54.5 50.7----
2024-04-22 01:42 pmNNE 6.0 9.9----30.09- 54.1 50.7----
2024-04-22 01:36 pmNNE 4.1 11.1----30.09- 53.4 50.5----
2024-04-22 01:30 pm N 7.0 9.9----30.09- 53.2 50.5----
2024-04-22 01:24 pm NW 2.9 8.0----30.09- 52.9 50.5----
2024-04-22 01:18 pmNNW 5.1 8.9----30.09- 52.5 50.5----
2024-04-22 01:12 pm NW 7.0 11.1----30.09- 52.7 50.5----
2024-04-22 01:06 pm NW 8.0 12.0----30.09- 52.5 50.5----
2024-04-22 01:00 pm NW 9.9 13.0----30.09+0.00 52.5 50.5----
2024-04-22 12:54 pm NW 9.9 15.0----30.09- 52.5 50.5----
2024-04-22 12:48 pmNNW 11.1 15.0----30.10- 53.2 50.5----
2024-04-22 12:42 pm N 8.0 11.1----30.10- 52.0 50.5----
2024-04-22 12:36 pm N 5.1 12.0----30.10- 51.8 50.5----
2024-04-22 12:30 pmNNE 8.0 11.1----30.10- 51.8 50.5----
2024-04-22 12:24 pm N 8.0 9.9----30.10- 51.6 50.5----
2024-04-22 12:18 pm N 6.0 9.9----30.10- 51.6 50.5----
2024-04-22 12:12 pm N 6.0 11.1----30.10- 51.4 50.5----
2024-04-22 12:06 pm N 5.1 8.0----30.10- 51.6 50.5----
2024-04-22 12:00 pm N 5.1 9.9----30.10+0.00 51.1 50.5----
2024-04-22 11:54 am N 6.0 8.9----30.10- 51.1 50.5----
2024-04-22 11:48 am N 8.9 12.0----30.10- 50.4 50.4----
2024-04-22 11:42 am N 6.0 9.9----30.10- 50.9 50.4----
2024-04-22 11:36 am N 7.0 12.0----30.10- 50.5 50.4----
2024-04-22 11:30 amNNE 4.1 8.0----30.10- 50.9 50.4----
2024-04-22 11:24 amNNW 4.1 8.9----30.11- 49.6 50.4----
2024-04-22 11:18 amWNW 8.0 11.1----30.11- 49.3 50.4----
2024-04-22 11:12 am NW 6.0 11.1----30.11- 49.3 50.4----
2024-04-22 11:06 amWNW 6.0 9.9----30.10- 49.1 50.4----
2024-04-22 11:00 amWNW 7.0 11.1----30.10+0.01 48.9 50.4----
2024-04-22 10:54 am NW 8.9 11.1----30.10- 48.9 50.4----
2024-04-22 10:48 am NW 6.0 9.9----30.10- 48.9 50.4----
2024-04-22 10:42 amWNW 8.9 11.1----30.10- 48.4 50.4----
2024-04-22 10:36 am NW 9.9 12.0----30.10- 48.0 50.4----
2024-04-22 10:30 am NW 8.9 11.1----30.10- 48.7 50.4----
2024-04-22 10:24 am NW 9.9 13.0----30.10- 48.2 50.4----
2024-04-22 10:18 am NW 8.9 12.0----30.10- 47.8 50.4----
2024-04-22 10:12 am NW 8.0 14.0----30.10- 48.6 50.4----
2024-04-22 10:06 am NW 8.9 11.1----30.10- 47.7 50.4----
2024-04-22 10:00 am NW 8.9 13.0----30.10+0.02 47.1 50.4----
2024-04-22 09:54 amWNW 12.0 13.0----30.10- 46.9 50.4----
2024-04-22 09:48 amWNW 9.9 12.0----30.10- 46.8 50.4----
2024-04-22 09:42 amWNW 11.1 14.0----30.10- 46.6 50.4----
2024-04-22 09:36 am NW 11.1 13.0----30.10- 46.9 50.4----
2024-04-22 09:30 amWNW 11.1 14.0----30.10- 46.4 50.4----
2024-04-22 09:24 am NW 11.1 14.0----30.10- 46.4 50.4----
2024-04-22 09:18 amWNW 11.1 14.0----30.09- 46.2 50.4----
2024-04-22 09:12 am NW 12.0 14.0----30.09- 46.2 50.4----
2024-04-22 09:06 amWNW 12.0 14.0----30.09- 46.0 50.4----
2024-04-22 09:00 amWNW 13.0 15.9----30.09+0.04 45.9 50.4----
2024-04-22 08:54 amWNW 13.0 15.9----30.09- 45.9 50.4----
2024-04-22 08:48 amWNW 13.0 15.9----30.09- 45.3 50.4----
2024-04-22 08:42 amWNW 12.0 15.0----30.09- 45.5 50.4----
2024-04-22 08:36 amWNW 13.0 15.0----30.09- 45.5 50.4----
2024-04-22 08:30 amWNW 13.0 15.0----30.09- 45.1 50.4----
2024-04-22 08:24 amWNW 13.0 15.0----30.09- 45.3 50.4----
2024-04-22 08:18 amWNW 13.0 15.9----30.09- 45.3 50.4----
2024-04-22 08:12 am W 13.0 15.0----30.09- 45.1 50.4----
2024-04-22 08:06 amWNW 14.0 15.0----30.09- 45.3 50.4----
2024-04-22 08:00 amWNW 13.0 15.9----30.09+0.04 45.3 50.4----
2024-04-22 07:54 am W 14.0 15.9----30.09- 45.1 50.4----
2024-04-22 07:48 am W 11.1 15.0----30.09- 44.6 50.4----
2024-04-22 07:42 am W 12.0 14.0----30.09- 45.0 50.4----
2024-04-22 07:36 amWNW 13.0 15.0----30.08- 45.5 50.4----
2024-04-22 07:30 amWNW 13.0 15.0----30.08- 45.9 50.4----
2024-04-22 07:24 amWNW 13.0 14.0----30.08- 45.7 50.4----
2024-04-22 07:18 amWNW 12.0 14.0----30.08- 45.5 50.4----
2024-04-22 07:12 amWNW 12.0 15.0----30.08- 45.5 50.4----
2024-04-22 07:06 amWNW 12.0 14.0----30.08- 45.3 50.4----
2024-04-22 07:00 amWNW 13.0 14.0----30.08+0.04 45.3 50.4----
2024-04-22 06:54 amWNW 12.0 14.0----30.07- 45.1 50.5----
2024-04-22 06:48 amWNW 11.1 13.0----30.07- 45.3 50.5----
2024-04-22 06:42 amWNW 11.1 12.0----30.07- 45.3 50.5----
2024-04-22 06:36 am NW 12.0 14.0----30.07- 45.1 50.5----
2024-04-22 06:30 amWNW 11.1 13.0----30.06- 45.5 50.5----
2024-04-22 06:24 amWNW 11.1 13.0----30.06- 45.5 50.5----
2024-04-22 06:18 am NW 9.9 12.0----30.06- 45.3 50.5----
2024-04-22 06:12 amWNW 12.0 12.0----30.06- 45.3 50.5----
2024-04-22 06:06 amWNW 11.1 13.0----30.06- 45.3 50.5----
2024-04-22 06:00 amWNW 11.1 12.0----30.05+0.03 45.5 50.5----
2024-04-22 05:54 am NW 9.9 12.0----30.05- 45.3 50.5----
2024-04-22 05:48 amWNW 9.9 12.0----30.05- 45.7 50.5----
2024-04-22 05:42 am NW 9.9 12.0----30.05- 45.3 50.5----
2024-04-22 05:36 amWNW 11.1 12.0----30.05- 45.3 50.5----
2024-04-22 05:30 am NW 9.9 12.0----30.05- 45.3 50.5----
2024-04-22 05:24 amWNW 9.9 12.0----30.05- 45.5 50.5----
2024-04-22 05:18 am NW 8.9 12.0----30.05- 45.3 50.5----
2024-04-22 05:12 am NW 8.9 12.0----30.05- 45.7 50.7----
2024-04-22 05:06 am NW 9.9 12.0----30.05- 45.7 50.7----
2024-04-22 05:00 am NW 8.0 12.0----30.05+0.03 45.7 50.7----
2024-04-22 04:54 am NW 9.9 13.0----30.05- 45.9 50.7----
2024-04-22 04:48 am NW 11.1 12.0----30.04- 45.9 50.9----
2024-04-22 04:42 am NW 8.9 12.0----30.04- 45.7 50.9----
2024-04-22 04:36 am NW 9.9 12.0----30.04- 45.9 51.1----
2024-04-22 04:30 am NW 8.9 12.0----30.04- 45.9 51.1----
2024-04-22 04:24 am NW 8.9 12.0----30.04- 45.9 51.1----
2024-04-22 04:18 am NW 11.1 12.0----30.04- 46.0 51.1----
2024-04-22 04:12 am NW 11.1 12.0----30.04- 46.2 51.1----
2024-04-22 04:06 am NW 9.9 11.1----30.04- 46.2 51.1----
2024-04-22 04:00 am NW 8.0 12.0----30.03+0.02 46.2 51.1----
2024-04-22 03:54 am NW 9.9 12.0----30.03- 46.2 51.1----
2024-04-22 03:48 am NW 9.9 12.0----30.03- 46.2 51.1----
2024-04-22 03:42 am NW 11.1 12.0----30.03- 46.2 51.1----
2024-04-22 03:36 am NW 9.9 13.0----30.03- 46.2 51.1----
2024-04-22 03:30 am NW 12.0 14.0----30.03- 46.2 51.1----
2024-04-22 03:24 am NW 12.0 14.0----30.02- 46.2 51.1----
2024-04-22 03:18 am NW 12.0 14.0----30.02- 46.2 51.1----
2024-04-22 03:12 am NW 12.0 14.0----30.02- 46.2 51.1----
2024-04-22 03:06 am NW 9.9 13.0----30.02- 46.4 51.1----
2024-04-22 03:00 am NW 11.1 13.0----30.02+0.02 46.4 51.1----
2024-04-22 02:54 amNNW 8.0 12.0----30.02- 46.2 51.1----